Date,TemperatureHighF,TemperatureAvgF,TemperatureLowF,DewpointHighF,DewpointAvgF,DewpointLowF,HumidityHigh,HumidityAvg,HumidityLow,PressureMaxIn,PressureMinIn,WindSpeedMaxMPH,WindSpeedAvgMPH,GustSpeedMaxMPH,PrecipitationSumIn
2013-2-1,31,27,25,20,14,10,73,57,49,30.20,30.03,22,3,22,0.00
2013-2-2,39,31,25,12,9,2,57,40,26,30.34,30.16,21,3,21,0.00
2013-2-3,42,36,29,4,-5,-17,30,19,8,30.26,29.96,19,4,19,0.00
2013-2-4,38,31,27,12,5,-2,44,34,23,30.04,29.90,23,5,23,0.00
2013-2-5,45,36,29,20,17,11,51,45,35,30.14,29.97,20,3,20,0.00
2013-2-6,41,35,23,25,19,10,90,54,41,30.13,29.92,11,2,11,0.00
2013-2-7,39,28,19,12,1,-17,64,36,9,30.18,30.08,12,1,12,0.00
2013-2-8,41,32,26,16,-2,-13,54,24,15,30.08,29.76,9,2,9,0.00
2013-2-9,31,25,17,19,16,6,93,68,52,29.76,29.50,11,2,11,0.00
2013-2-10,22,16,7,14,7,0,90,68,39,29.95,29.52,11,2,11,0.00
2013-2-11,19,13,9,14,9,1,90,83,59,29.96,29.87,7,1,7,0.00
2013-2-12,31,20,13,6,1,-13,61,46,19,30.03,29.94,17,2,17,0.00
2013-2-13,29,23,17,13,8,5,59,53,44,30.03,29.93,24,6,24,0.00
2013-2-14,30,18,8,16,10,5,89,71,39,30.21,29.99,15,2,17,0.00
2013-2-15,24,17,7,11,6,4,87,66,45,30.25,30.15,23,3,23,0.00
2013-2-16,38,30,22,13,9,5,62,43,26,30.20,29.96,23,6,23,0.00
2013-2-17,43,32,20,15,3,-6,72,30,15,30.00,29.65,21,3,21,0.00
2013-2-18,23,19,11,5,1,-6,59,45,34,30.03,29.73,20,3,20,0.00
2013-2-19,38,24,8,6,-5,-28,69,32,8,30.02,29.77,10,1,10,0.00
2013-2-20,19,19,18,2,2,2,49,48,48,29.77,29.77,2,2,3,0.00
2013-2-23,34,26,16,18,14,7,84,62,43,29.69,29.56,22,2,22,0.00
2013-2-24,21,18,16,16,14,12,91,85,77,30.03,29.67,0,0,0,0.00
2013-2-25,32,23,18,21,13,3,84,67,41,30.00,29.80,1,0,1,0.00
2013-2-26,26,22,19,19,13,7,87,71,50,30.08,29.76,10,1,10,0.00
2013-2-27,24,15,0,14,1,-9,78,37,32,30.19,30.08,18,2,18,0.00
2013-2-28,27,20,14,10,4,-4,59,49,37,30.25,30.15,17,4,17,0.00